www.pogodaiklimat.ru

ПОГОДА в Уинстон-Сейлеме, NC

  • Прогноз погоды в Уинстон-Сейлеме
  • Монитор погоды в Уинстон-Сейлеме
  • Климат в Уинстон-Сейлеме

АРХИВ ПОГОДЫ в Уинстон-Сейлеме

Время (UTC), дата Ветер
(напр.,м/с)
 
Видим.   Явления Облачность Т
(С)
Тd
(С)
f
(%)
Тe
(С)
Тes
(С)
Комфортность

P
(гПа)

Po
(гПа)
Тmin
(С)
Tmax
(С)
R
(мм)
SD
(см)
12:54 25.05 Ю  16 км    ясно  +26.7  +20.0  67  +33  +38  очень
душно 
1021.2  987.0         
13:54 25.05   16 км    ясно  +27.2  +18.9  60  +32  +47  очень
душно 
1021.5  987.3         
14:54 25.05   16 км    ясно  +28.9  +19.4  57  +35  +55  опасность
солнечного
удара 
1021.2  987.3         
15:54 25.05   16 км    ясно  +30.6  +20.0  53  +37  +62  опасность
солнечного
удара 
1020.9  987.0         
16:54 25.05 нст  16 км    ясно  +31.1  +19.4  50  +37  +54  опасность
солнечного
удара 
1019.8  986.0  +23.3  +31.1     
17:54 25.05 Ю  16 км    5/5 1500 м  +31.1  +18.9  48  +36  +42  очень
душно 
1019.0  985.0         
18:54 25.05 Ю  16 км    2/2 1650 м  +31.7  +19.4  48  +37  +47  очень
душно 
1018.1  984.0         
19:54 25.05 Ю  16 км    5/2 1650 м
[средняя] 
+31.7  +19.4  48  +37  +43  очень
душно 
1017.9  984.0         
20:54 25.05 ЮЗ  16 км    8/5 1650 м
[средняя] 
+32.2  +19.4  47  +38  +40  очень
душно 
1017.9  984.0         
21:54 25.05 ЮЗ  16 км    ясно  +31.7  +19.4  48  +37  +41  очень
душно 
1017.8  984.0         
22:54 25.05 Ю  16 км    ясно  +31.1  +19.4  50  +37  +39  очень
душно 
1017.8  984.0  +30.6  +32.2     
23:54 25.05 Ю  16 км    10/0 2400 м
[средняя] 
+30.0  +20.0  55  +36  +36  очень
душно 
1017.9  984.0         
00:54 26.05   16 км    8/2 1950 м
[средняя] 
+27.8  +20.6  65  +35  +35  очень
душно 
1018.6  984.7         
01:54 26.05 Ю  16 км    10/0 2400 м
[средняя] 
+27.8  +20.6  65  +35  +35  очень
душно 
1018.4  984.7         
02:54 26.05 нст  16 км    5/0 2700 м
[средняя] 
+26.1  +20.6  72  +33  +33  очень
душно 
1018.3  984.3         
03:54 26.05   16 км    ясно  +25.0  +20.0  74  +31  +31  очень
душно 
1018.1  984.3         
04:54 26.05 ЮВ  16 км    ясно  +22.2  +20.6  91  +29  +29  очень
душно 
1018.2  984.3  +22.2  +30.6     
05:54 26.05   14 км    ясно  +21.7  +20.0  90  +27  +27  душно  1018.2  984.3         
06:54 26.05   14 км    ясно  +21.7  +20.0  90  +27  +27  душно  1018.2  984.3         
07:54 26.05   14 км    ясно  +21.7  +20.0  90  +27  +27  душно  1018.2  984.3         
08:54 26.05   13 км    ясно  +21.1  +19.4  90  +26  +26  душно  1018.8  985.0         
09:54 26.05   10 км  дымка  ясно  +20.6  +19.4  93  +25  +25  комфорт  1019.2  985.3         
10:54 26.05   16 км    ясно  +24.4  +20.0  76  +30  +31  очень
душно 
1019.4  985.3  +20.6  +24.4     
11:54 26.05 СЗ  16 км    ясно  +27.2  +18.9  60  +32  +35  очень
душно 
1019.7  985.7         
12:54 26.05 СЗ  16 км    ясно  +29.4  +17.2  48  +33  +38  душно  1019.8  986.0         
13:54 26.05 З  16 км    ясно  +29.4  +16.7  46  +33  +43  душно  1019.6  985.7         
14:54 26.05 З  16 км    ясно  +30.6  +15.6  40  +33  +43  душно  1019.1  985.3         
15:54 26.05 З  16 км    ясно  +31.7  +16.1  39  +35  +44  очень
душно 
1018.4  984.7         
16:54 26.05 З  5
{8} 
16 км    2/2 1950 м  +31.7  +16.1  39  +35  +41  очень
душно 
1018.1  984.0  +24.4  +32.2     
17:54 26.05 З  4
{7} 
16 км    ясно  +32.2  +16.7  39  +35  +46  очень
душно 
1017.5  983.4         
18:54 26.05 З  16 км    2/0 2100 м
[средняя] 
+32.8  +15.6  36  +35  +44  душно  1016.6  982.7         
19:54 26.05 ЮЗ  16 км    ясно  +32.8  +14.4  33  +34  +47  очень
жарко 
1015.9  982.1         
20:54 26.05 нст  16 км    ясно  +32.8  +13.9  32  +34  +42  очень
жарко 
1015.4  981.4         
21:54 26.05 нст  16 км    ясно  +32.2  +13.9  33  +34  +39  душно  1015.1  981.4         
22:54 26.05 нст  16 км    ясно  +30.6  +14.4  37  +32  +34  жарко  1015.2  981.4  +30.6  +33.3     
23:54 26.05   16 км    ясно  +29.4  +15.0  42  +32  +32  душно  1015.3  981.4         
00:54 27.05 З  16 км    ясно  +28.3  +15.6  46  +31  +31  душно  1015.5  981.7         
01:54 27.05 З  16 км    ясно  +27.8  +14.4  44  +30  +30  жарко  1015.7  982.1         
02:54 27.05 З  16 км    ясно  +26.1  +14.4  48  +28  +28  жарко  1015.5  981.7         
03:54 27.05 С  16 км    5/0 3300 м
[средняя] 
+25.0  +15.6  56  +28  +28  жарко  1015.7  982.1         
04:54 27.05   16 км    2/0 3000 м
[средняя] 
+23.9  +16.1  62  +27  +27  жарко  1015.3  981.4  +22.8  +30.6     
05:54 27.05 СЗ  16 км    ясно  +22.8  +16.1  66  +27  +27  душно  1015.1  981.4         
06:54 27.05 СЗ  16 км    ясно  +23.3  +15.6  62  +28  +28  душно  1015.0  981.1         
07:54 27.05 С  16 км    ясно  +21.7  +16.1  70  +25  +25  комфорт  1015.0  981.1         
08:54 27.05 СЗ  16 км    ясно  +22.2  +16.1  68  +26  +26  душно  1014.9  981.1         
09:54 27.05 СЗ  16 км    ясно  +22.8  +16.7  68  +27  +27  душно  1015.7  982.1         
10:54 27.05 СЗ  16 км    ясно  +23.9  +17.2  66  +28  +28  душно  1016.2  982.4  +21.7  +23.9     
11:54 27.05 С  16 км    ясно  +26.1  +17.2  58  +30  +32  душно  1016.4  982.7         

 

Местоположение метеостанции Smith Reynolds Airport: широта 36.1333 долгота -80.2247 высота над уровнем моря 295 м.

В архиве по умолчанию представлена погода в Уинстон-Сейлеме за последние 1-2 суток. Обновление информации о фактической погоде в базе происходит ежечасно! Архивные данные за месяц целиком и за предыдущие месяцы Вы можете получить, выбрав интересующий диапазон дат из раскрывающегося списка и нажав кнопку "Ввод!".

Внимание! Архив погоды МЕТАР в базе сайта хранится не более 60 дней. Нет смысла пытаться выбрать более раннюю дату.

Внимание! Время в таблицах - всемирное. Для получения местного времени необходимо прибавить поправку, которая в Уинстон-Сейлеме равна -5 ч.

Ветер - указаны скорость ветра в м/с и направление, откуда дует ветер: С - северный, СВ - северо-восточный, В - восточный, ЮВ - юго-восточный, Ю - южный, ЮЗ - юго-западный, З - западный, СЗ - северо-западный.
Видимость - горизонтальная дальность видимости в метрах или километрах. При видимости от 1 до 10 км при отсутствии осадков обычно наблюдается дымка, при ухудшении видимости до 1 км и менее - туман. В сухую погоду видимость может ухудшаться дымом, пылью или мглою.
Атмосферные явления - указаны явления, наблюдавшиеся в указанный момент времени.
Облачность - указаны через наклонную черту верхняя и нижняя облачность в баллах и высота нижней границы облаков в метрах. Внимание: облачность, как и прочие метеорологические величины в США измеряются автоматическими метеостанциями. Указанные значения в баллах носят условный характер и показывают процент времени, в течение которого, в среднем, лазерный луч высотомера отражался от облаков обратно.
T - Температура воздуха - температура, измеренная на высоте 2 м над землей.
Td - Температура точки росы - температура, при понижении до которой содержащийся в воздухе водяной пар достигнет насыщения.
f - Относительная влажность воздуха - влажноcть воздуха, измеренная на высоте 2 м над землей.
Te - Эффективная температура - температура, которую ощущает одетый по сезону человек в тени. Характеристика душности погоды. При расчете учитывается влияние влажности воздуха и скорости ветра на теплоощущения человека.
Tes - Эффективная температура на солнце - температура, которую ощущает человек, с поправкой на солнечный нагрев. Характеристика знойности погоды. Зависит от высоты солнца над горизонтом, облачности и скорости ветра. Ночью, в пасмурную погоду, а также при ветре 12 м/с и более поправка равна нулю.
P - Атмосферное давление - приведенное к уровню моря атмосферное давление.
Po - Атмосферное давление - измеренное на уровне метеостанции атмосферное давление.
Tmin - Минимальная температура - минимум температуры воздуха на высоте 2 м над землей.
Tmax - Максимальная температура - максимум температуры воздуха на высоте 2 м над землей.
R - Количество осадков - Количество выпавших осадков за 3 или 6 часов, мм.
SD - Снежный покров - Высота снежного покрова, см.